Location: La Brionne
(46.1728°N, 1.7849°E)
Time: 07:23:53
(UTC+00:00)

Cosmos 389 Rocket - Pass Details

Date: 16 June 2021
Orbit: 440 x 471 km, 81.1° (Epoch: 31 July)

Event Time Altitude Azimuth Distance (km) Brightness Sun altitude
Rises 21:57:19 0° 1° (N) 2,445 7.3 -15.6°
Reaches altitude 10° 21:59:41 10° 16° (NNE) 1,571 5.8 -15.8°
Maximum altitude 22:02:29 23° 71° (ENE) 990 4.0 -16.0°
Enters shadow 22:03:26 21° 97° (E) 1,072 4.0 -16.1°
